Time,TemperatureF,DewpointF,PressureIn,WindDirection,WindDirectionDegrees,WindSpeedMPH,WindSpeedGustMPH,Humidity,HourlyPrecipIn,Conditions,Clouds,dailyrainin,SoftwareType,DateUTC
2013-05-23 00:01:00,48.0,48.0,29.55,ESE,112,6.0,10.0,100,0.00,,,0.00,Rainwise IP-100,2013-05-23 04:01:00,
2013-05-23 00:06:00,47.0,47.0,29.54,ESE,112,5.0,9.0,100,0.00,,,0.00,Rainwise IP-100,2013-05-23 04:06:00,
2013-05-23 00:11:00,47.0,47.0,29.54,South,180,6.0,9.0,100,0.00,,,0.00,Rainwise IP-100,2013-05-23 04:11:00,
2013-05-23 00:16:00,47.0,47.0,29.55,South,180,5.0,6.0,100,0.00,,,0.00,Rainwise IP-100,2013-05-23 04:16:00,
2013-05-23 00:21:00,47.0,47.0,29.55,SSW,202,3.0,9.0,100,0.00,,,0.00,Rainwise IP-100,2013-05-23 04:21:00,
2013-05-23 00:23:00,47.0,47.0,29.57,SSW,202,4.0,5.0,100,0.00,,,0.00,Rainwise IP-100,2013-05-23 04:23:00,
2013-05-23 00:28:00,47.0,47.0,29.57,SSW,202,4.0,8.0,100,0.00,,,0.00,Rainwise IP-100,2013-05-23 04:28:00,
2013-05-23 00:33:00,47.0,47.0,29.57,SSW,202,3.0,6.0,100,0.00,,,0.00,Rainwise IP-100,2013-05-23 04:33:00,
2013-05-23 00:38:00,47.0,47.0,29.57,SSE,157,4.0,5.0,100,0.00,,,0.00,Rainwise IP-100,2013-05-23 04:38:00,
2013-05-23 00:43:00,47.0,47.0,29.55,SSE,157,5.0,7.0,100,0.00,,,0.00,Rainwise IP-100,2013-05-23 04:43:00,
2013-05-23 00:48:00,47.0,47.0,29.55,SSW,202,4.0,7.0,100,0.00,,,0.00,Rainwise IP-100,2013-05-23 04:48:00,
2013-05-23 00:53:00,47.0,47.0,29.55,South,180,8.0,8.0,100,0.00,,,0.00,Rainwise IP-100,2013-05-23 04:53:00,
2013-05-23 00:58:00,47.0,47.0,29.55,SSW,202,3.0,9.0,100,0.00,,,0.00,Rainwise IP-100,2013-05-23 04:58:00,
2013-05-23 01:03:00,47.0,47.0,29.55,SSE,157,4.0,8.0,100,0.00,,,0.00,Rainwise IP-100,2013-05-23 05:03:00,
2013-05-23 01:08:00,47.0,47.0,29.55,South,180,4.0,4.0,100,0.00,,,0.00,Rainwise IP-100,2013-05-23 05:08:00,
2013-05-23 01:13:00,47.0,47.0,29.55,SE,135,4.0,5.0,100,0.00,,,0.00,Rainwise IP-100,2013-05-23 05:13:00,
2013-05-23 01:18:00,47.0,47.0,29.55,SE,135,7.0,7.0,100,0.00,,,0.00,Rainwise IP-100,2013-05-23 05:18:00,
2013-05-23 01:23:00,47.0,47.0,29.55,South,180,3.0,7.0,100,0.00,,,0.00,Rainwise IP-100,2013-05-23 05:23:00,
2013-05-23 01:28:00,47.0,47.0,29.55,ESE,112,3.0,5.0,100,0.00,,,0.00,Rainwise IP-100,2013-05-23 05:28:00,
2013-05-23 01:33:00,47.0,47.0,29.56,SE,135,8.0,8.0,100,0.00,,,0.00,Rainwise IP-100,2013-05-23 05:33:00,
2013-05-23 01:38:00,47.0,47.0,29.56,East,90,5.0,10.0,100,0.00,,,0.00,Rainwise IP-100,2013-05-23 05:38:00,
2013-05-23 01:43:00,47.0,47.0,29.56,SSE,157,3.0,11.0,100,0.00,,,0.00,Rainwise IP-100,2013-05-23 05:43:00,
2013-05-23 01:48:00,47.0,47.0,29.56,SSE,157,3.0,9.0,100,0.00,,,0.00,Rainwise IP-100,2013-05-23 05:48:00,
2013-05-23 01:53:00,47.0,47.0,29.55,SSE,157,3.0,6.0,100,0.00,,,0.00,Rainwise IP-100,2013-05-23 05:53:00,
2013-05-23 01:58:00,47.0,47.0,29.55,SSW,202,5.0,8.0,100,0.00,,,0.00,Rainwise IP-100,2013-05-23 05:58:00,
2013-05-23 02:03:00,47.0,47.0,29.55,SSW,202,5.0,8.0,100,0.00,,,0.00,Rainwise IP-100,2013-05-23 06:03:00,
2013-05-23 02:08:00,47.0,47.0,29.55,SE,135,6.0,9.0,100,0.00,,,0.00,Rainwise IP-100,2013-05-23 06:08:00,
2013-05-23 02:13:00,47.0,47.0,29.54,ESE,112,3.0,10.0,100,0.00,,,0.00,Rainwise IP-100,2013-05-23 06:13:00,
2013-05-23 02:18:00,47.0,47.0,29.54,South,180,6.0,10.0,100,0.00,,,0.00,Rainwise IP-100,2013-05-23 06:18:00,
2013-05-23 02:23:00,47.0,47.0,29.55,South,180,6.0,7.0,100,0.00,,,0.00,Rainwise IP-100,2013-05-23 06:23:00,
2013-05-23 02:28:00,47.0,47.0,29.55,South,180,0.0,7.0,100,0.00,,,0.00,Rainwise IP-100,2013-05-23 06:28:00,
2013-05-23 02:33:00,47.0,47.0,29.54,SE,135,3.0,6.0,100,0.00,,,0.00,Rainwise IP-100,2013-05-23 06:33:00,
2013-05-23 02:38:00,47.0,47.0,29.54,ESE,112,3.0,7.0,100,0.00,,,0.00,Rainwise IP-100,2013-05-23 06:38:00,
2013-05-23 02:43:00,47.0,47.0,29.54,ESE,112,4.0,5.0,100,0.00,,,0.00,Rainwise IP-100,2013-05-23 06:43:00,
2013-05-23 02:48:00,47.0,47.0,29.54,SSE,157,4.0,6.0,100,0.00,,,0.00,Rainwise IP-100,2013-05-23 06:48:00,
2013-05-23 02:53:00,47.0,47.0,29.53,SE,135,6.0,6.0,100,0.00,,,0.00,Rainwise IP-100,2013-05-23 06:53:00,
2013-05-23 02:58:00,47.0,47.0,29.53,ESE,112,7.0,8.0,100,0.00,,,0.00,Rainwise IP-100,2013-05-23 06:58:00,
2013-05-23 03:03:00,47.0,47.0,29.52,SE,135,4.0,7.0,100,0.00,,,0.00,Rainwise IP-100,2013-05-23 07:03:00,
2013-05-23 03:08:00,47.0,47.0,29.52,SE,135,1.0,9.0,100,0.00,,,0.00,Rainwise IP-100,2013-05-23 07:08:00,
2013-05-23 03:13:00,47.0,47.0,29.53,ESE,112,3.0,6.0,100,0.00,,,0.00,Rainwise IP-100,2013-05-23 07:13:00,
2013-05-23 03:18:00,47.0,47.0,29.53,ESE,112,3.0,8.0,100,0.00,,,0.00,Rainwise IP-100,2013-05-23 07:18:00,
2013-05-23 03:23:00,47.0,47.0,29.53,SE,135,0.0,6.0,100,0.00,,,0.00,Rainwise IP-100,2013-05-23 07:23:00,
2013-05-23 03:28:00,47.0,47.0,29.53,East,90,2.0,6.0,100,0.00,,,0.00,Rainwise IP-100,2013-05-23 07:28:00,
2013-05-23 03:33:00,47.0,47.0,29.52,ESE,112,1.0,6.0,100,0.00,,,0.00,Rainwise IP-100,2013-05-23 07:33:00,
2013-05-23 03:38:00,47.0,47.0,29.52,SSE,157,4.0,6.0,100,0.00,,,0.00,Rainwise IP-100,2013-05-23 07:38:00,
2013-05-23 03:43:00,47.0,47.0,29.52,SE,135,7.0,7.0,100,0.00,,,0.00,Rainwise IP-100,2013-05-23 07:43:00,
2013-05-23 03:48:00,47.0,47.0,29.52,SSE,157,5.0,8.0,100,0.00,,,0.00,Rainwise IP-100,2013-05-23 07:48:00,
2013-05-23 03:51:00,47.0,47.0,29.52,SE,135,4.0,7.0,100,0.00,,,0.00,Rainwise IP-100,2013-05-23 07:51:00,
2013-05-23 03:56:00,47.0,47.0,29.52,South,180,6.0,6.0,100,0.00,,,0.00,Rainwise IP-100,2013-05-23 07:56:00,
2013-05-23 04:01:00,48.0,48.0,29.51,ESE,112,3.0,8.0,100,0.00,,,0.00,Rainwise IP-100,2013-05-23 08:01:00,
2013-05-23 04:06:00,47.0,47.0,29.51,SE,135,5.0,7.0,100,0.00,,,0.00,Rainwise IP-100,2013-05-23 08:06:00,
2013-05-23 04:11:00,48.0,48.0,29.51,SE,135,3.0,6.0,100,0.00,,,0.00,Rainwise IP-100,2013-05-23 08:11:00,
2013-05-23 04:16:00,47.0,47.0,29.51,SE,135,1.0,7.0,100,0.00,,,0.00,Rainwise IP-100,2013-05-23 08:16:00,
2013-05-23 04:21:00,48.0,48.0,29.51,SE,135,3.0,5.0,100,0.00,,,0.00,Rainwise IP-100,2013-05-23 08:21:00,
2013-05-23 04:26:00,47.0,47.0,29.51,SSE,157,6.0,7.0,100,0.00,,,0.00,Rainwise IP-100,2013-05-23 08:26:00,
2013-05-23 04:31:00,48.0,48.0,29.51,SE,135,5.0,7.0,100,0.00,,,0.00,Rainwise IP-100,2013-05-23 08:31:00,
2013-05-23 04:36:00,48.0,48.0,29.51,SSE,157,3.0,8.0,100,0.00,,,0.00,Rainwise IP-100,2013-05-23 08:36:00,
2013-05-23 04:41:00,48.0,48.0,29.52,SSE,157,4.0,6.0,100,0.00,,,0.00,Rainwise IP-100,2013-05-23 08:41:00,
2013-05-23 04:46:00,48.0,48.0,29.52,South,180,4.0,6.0,100,0.00,,,0.00,Rainwise IP-100,2013-05-23 08:46:00,
2013-05-23 04:51:00,48.0,48.0,29.52,SSE,157,4.0,6.0,100,0.00,,,0.00,Rainwise IP-100,2013-05-23 08:51:00,
2013-05-23 04:56:00,48.0,48.0,29.52,SSE,157,3.0,6.0,100,0.00,,,0.00,Rainwise IP-100,2013-05-23 08:56:00,
2013-05-23 05:01:00,48.0,48.0,29.52,SSE,157,1.0,8.0,100,0.00,,,0.00,Rainwise IP-100,2013-05-23 09:01:00,
2013-05-23 05:06:00,48.0,48.0,29.52,SSE,157,5.0,9.0,100,0.00,,,0.00,Rainwise IP-100,2013-05-23 09:06:00,
2013-05-23 05:11:00,48.0,48.0,29.52,SSW,202,4.0,8.0,100,0.00,,,0.00,Rainwise IP-100,2013-05-23 09:11:00,
2013-05-23 05:16:00,48.0,48.0,29.51,SE,135,3.0,8.0,100,0.00,,,0.00,Rainwise IP-100,2013-05-23 09:16:00,
2013-05-23 05:21:00,48.0,48.0,29.51,SE,135,2.0,8.0,100,0.00,,,0.00,Rainwise IP-100,2013-05-23 09:21:00,
2013-05-23 05:26:00,48.0,48.0,29.51,SE,135,2.0,7.0,100,0.00,,,0.00,Rainwise IP-100,2013-05-23 09:26:00,
2013-05-23 05:31:00,48.0,48.0,29.50,SE,135,3.0,8.0,100,0.00,,,0.00,Rainwise IP-100,2013-05-23 09:31:00,
2013-05-23 05:36:00,48.0,48.0,29.50,ESE,112,2.0,5.0,100,0.00,,,0.00,Rainwise IP-100,2013-05-23 09:36:00,
2013-05-23 05:41:00,48.0,48.0,29.50,ESE,112,3.0,8.0,100,0.00,,,0.00,Rainwise IP-100,2013-05-23 09:41:00,
2013-05-23 05:46:00,48.0,48.0,29.50,SE,135,6.0,8.0,100,0.00,,,0.00,Rainwise IP-100,2013-05-23 09:46:00,
2013-05-23 05:51:00,48.0,48.0,29.51,SE,135,4.0,8.0,100,0.00,,,0.00,Rainwise IP-100,2013-05-23 09:51:00,
2013-05-23 05:56:00,48.0,48.0,29.51,SE,135,4.0,6.0,100,0.00,,,0.00,Rainwise IP-100,2013-05-23 09:56:00,
2013-05-23 06:01:00,48.0,48.0,29.51,ESE,112,5.0,7.0,100,0.00,,,0.00,Rainwise IP-100,2013-05-23 10:01:00,
2013-05-23 06:06:00,48.0,48.0,29.51,East,90,4.0,7.0,100,0.00,,,0.00,Rainwise IP-100,2013-05-23 10:06:00,
2013-05-23 06:11:00,48.0,48.0,29.51,ESE,112,6.0,6.0,100,0.00,,,0.00,Rainwise IP-100,2013-05-23 10:11:00,
2013-05-23 06:16:00,48.0,48.0,29.51,ESE,112,7.0,7.0,100,0.00,,,0.00,Rainwise IP-100,2013-05-23 10:16:00,
2013-05-23 06:21:00,48.0,48.0,29.51,ESE,112,7.0,7.0,100,0.00,,,0.00,Rainwise IP-100,2013-05-23 10:21:00,
2013-05-23 06:26:00,48.0,48.0,29.50,West,270,2.0,7.0,100,0.00,,,0.00,Rainwise IP-100,2013-05-23 10:26:00,
2013-05-23 06:29:00,48.0,48.0,29.50,ESE,112,3.0,7.0,100,0.00,,,0.00,Rainwise IP-100,2013-05-23 10:29:00,
2013-05-23 06:34:00,48.0,48.0,29.52,South,180,1.0,5.0,100,0.00,,,0.00,Rainwise IP-100,2013-05-23 10:34:00,
2013-05-23 06:39:00,48.0,48.0,29.52,SW,225,0.0,3.0,100,0.00,,,0.00,Rainwise IP-100,2013-05-23 10:39:00,
2013-05-23 06:44:00,48.0,48.0,29.52,SW,225,0.0,3.0,100,0.00,,,0.00,Rainwise IP-100,2013-05-23 10:44:00,
2013-05-23 06:49:00,48.0,48.0,29.52,SW,225,2.0,0.0,100,0.00,,,0.00,Rainwise IP-100,2013-05-23 10:49:00,
2013-05-23 06:54:00,48.0,48.0,29.52,SW,225,0.0,4.0,100,0.00,,,0.00,Rainwise IP-100,2013-05-23 10:54:00,
2013-05-23 06:59:00,48.0,48.0,29.52,South,180,3.0,3.0,100,0.00,,,0.00,Rainwise IP-100,2013-05-23 10:59:00,
2013-05-23 07:04:00,48.0,48.0,29.52,SE,135,4.0,5.0,100,0.00,,,0.00,Rainwise IP-100,2013-05-23 11:04:00,
2013-05-23 07:09:00,48.0,48.0,29.52,SSE,157,3.0,7.0,100,0.00,,,0.00,Rainwise IP-100,2013-05-23 11:09:00,
2013-05-23 07:14:00,48.0,48.0,29.51,SE,135,3.0,5.0,100,0.00,,,0.00,Rainwise IP-100,2013-05-23 11:14:00,
2013-05-23 07:19:00,48.0,48.0,29.51,SSE,157,2.0,6.0,100,0.00,,,0.00,Rainwise IP-100,2013-05-23 11:19:00,
2013-05-23 07:24:00,48.0,48.0,29.51,South,180,3.0,5.0,100,0.00,,,0.00,Rainwise IP-100,2013-05-23 11:24:00,
2013-05-23 07:29:00,48.0,48.0,29.51,South,180,6.0,6.0,100,0.00,,,0.00,Rainwise IP-100,2013-05-23 11:29:00,
2013-05-23 07:34:00,48.0,48.0,29.51,SSW,202,4.0,6.0,100,0.00,,,0.00,Rainwise IP-100,2013-05-23 11:34:00,
2013-05-23 07:39:00,48.0,48.0,29.51,SSE,157,3.0,6.0,100,0.00,,,0.00,Rainwise IP-100,2013-05-23 11:39:00,
2013-05-23 07:44:00,48.0,48.0,29.52,South,180,3.0,4.0,100,0.00,,,0.00,Rainwise IP-100,2013-05-23 11:44:00,
2013-05-23 07:49:00,48.0,48.0,29.52,East,90,3.0,4.0,100,0.00,,,0.00,Rainwise IP-100,2013-05-23 11:49:00,
2013-05-23 07:54:00,49.0,49.0,29.53,ENE,67,4.0,4.0,100,0.00,,,0.00,Rainwise IP-100,2013-05-23 11:54:00,
2013-05-23 07:59:00,49.0,49.0,29.53,ESE,112,3.0,4.0,100,0.00,,,0.00,Rainwise IP-100,2013-05-23 11:59:00,
2013-05-23 08:04:00,49.0,49.0,29.52,ESE,112,3.0,5.0,100,0.00,,,0.00,Rainwise IP-100,2013-05-23 12:04:00,
2013-05-23 08:09:00,49.0,49.0,29.52,East,90,5.0,5.0,100,0.00,,,0.00,Rainwise IP-100,2013-05-23 12:09:00,
2013-05-23 08:14:00,49.0,49.0,29.52,East,90,0.0,6.0,100,0.00,,,0.00,Rainwise IP-100,2013-05-23 12:14:00,
2013-05-23 08:19:00,49.0,49.0,29.52,East,90,4.0,5.0,100,0.00,,,0.00,Rainwise IP-100,2013-05-23 12:19:00,
2013-05-23 08:24:00,49.0,49.0,29.53,East,90,2.0,5.0,100,0.00,,,0.00,Rainwise IP-100,2013-05-23 12:24:00,
2013-05-23 08:29:00,49.0,49.0,29.53,East,90,0.0,4.0,100,0.00,,,0.00,Rainwise IP-100,2013-05-23 12:29:00,
2013-05-23 08:34:00,49.0,49.0,29.53,SSE,157,2.0,3.0,100,0.00,,,0.00,Rainwise IP-100,2013-05-23 12:34:00,
2013-05-23 08:39:00,49.0,49.0,29.53,SSE,157,4.0,4.0,100,0.00,,,0.00,Rainwise IP-100,2013-05-23 12:39:00,
2013-05-23 08:44:00,49.0,49.0,29.53,South,180,3.0,5.0,100,0.00,,,0.00,Rainwise IP-100,2013-05-23 12:44:00,
2013-05-23 08:49:00,49.0,49.0,29.53,SE,135,2.0,5.0,100,0.00,,,0.00,Rainwise IP-100,2013-05-23 12:49:00,
2013-05-23 08:54:00,49.0,49.0,29.52,South,180,4.0,5.0,100,0.00,,,0.00,Rainwise IP-100,2013-05-23 12:54:00,
2013-05-23 08:59:00,49.0,49.0,29.52,SE,135,2.0,5.0,100,0.00,,,0.00,Rainwise IP-100,2013-05-23 12:59:00,
2013-05-23 09:04:00,49.0,49.0,29.53,SE,135,0.0,3.0,100,0.00,,,0.00,Rainwise IP-100,2013-05-23 13:04:00,
2013-05-23 09:09:00,50.0,50.0,29.53,SE,135,0.0,1.0,100,0.00,,,0.00,Rainwise IP-100,2013-05-23 13:09:00,
2013-05-23 09:14:00,50.0,50.0,29.53,SE,135,0.0,1.0,100,0.00,,,0.00,Rainwise IP-100,2013-05-23 13:14:00,
2013-05-23 09:19:00,50.0,50.0,29.53,SSE,157,3.0,4.0,100,0.00,,,0.00,Rainwise IP-100,2013-05-23 13:19:00,
2013-05-23 09:24:00,51.0,51.0,29.53,South,180,1.0,4.0,100,0.00,,,0.00,Rainwise IP-100,2013-05-23 13:24:00,
2013-05-23 09:29:00,51.0,51.0,29.53,South,180,3.0,5.0,100,0.00,,,0.00,Rainwise IP-100,2013-05-23 13:29:00,
2013-05-23 09:34:00,51.0,51.0,29.53,South,180,2.0,4.0,100,0.00,,,0.00,Rainwise IP-100,2013-05-23 13:34:00,
2013-05-23 09:39:00,51.0,51.0,29.53,ESE,112,0.0,4.0,100,0.00,,,0.00,Rainwise IP-100,2013-05-23 13:39:00,
2013-05-23 09:44:00,51.0,51.0,29.52,SSE,157,3.0,4.0,100,0.00,,,0.00,Rainwise IP-100,2013-05-23 13:44:00,
2013-05-23 09:49:00,51.0,51.0,29.52,South,180,4.0,5.0,100,0.00,,,0.00,Rainwise IP-100,2013-05-23 13:49:00,
2013-05-23 09:54:00,52.0,52.0,29.52,South,180,4.0,5.0,100,0.00,,,0.00,Rainwise IP-100,2013-05-23 13:54:00,
2013-05-23 09:59:00,52.0,52.0,29.52,South,180,3.0,5.0,100,0.00,,,0.00,Rainwise IP-100,2013-05-23 13:59:00,
2013-05-23 10:04:00,53.0,53.0,29.51,SSE,157,4.0,5.0,100,0.00,,,0.00,Rainwise IP-100,2013-05-23 14:04:00,
2013-05-23 10:09:00,53.0,53.0,29.51,South,180,6.0,6.0,100,0.00,,,0.00,Rainwise IP-100,2013-05-23 14:09:00,
2013-05-23 10:14:00,53.0,53.0,29.51,SE,135,3.0,6.0,100,0.00,,,0.00,Rainwise IP-100,2013-05-23 14:14:00,
2013-05-23 10:19:00,53.0,53.0,29.51,South,180,5.0,6.0,100,0.00,,,0.00,Rainwise IP-100,2013-05-23 14:19:00,
2013-05-23 10:24:00,53.0,53.0,29.51,South,180,6.0,8.0,100,0.00,,,0.00,Rainwise IP-100,2013-05-23 14:24:00,
2013-05-23 10:29:00,52.0,52.0,29.51,South,180,5.0,7.0,100,0.00,,,0.00,Rainwise IP-100,2013-05-23 14:29:00,
2013-05-23 10:34:00,52.0,52.0,29.51,South,180,5.0,8.0,100,0.00,,,0.00,Rainwise IP-100,2013-05-23 14:34:00,
2013-05-23 10:39:00,52.0,52.0,29.51,South,180,6.0,9.0,100,0.00,,,0.00,Rainwise IP-100,2013-05-23 14:39:00,
2013-05-23 10:44:00,53.0,53.0,29.51,ESE,112,6.0,8.0,100,0.00,,,0.00,Rainwise IP-100,2013-05-23 14:44:00,
2013-05-23 10:49:00,53.0,53.0,29.51,South,180,6.0,6.0,100,0.00,,,0.00,Rainwise IP-100,2013-05-23 14:49:00,
2013-05-23 10:54:00,53.0,53.0,29.52,East,90,3.0,7.0,100,0.00,,,0.00,Rainwise IP-100,2013-05-23 14:54:00,
2013-05-23 10:59:00,54.0,54.0,29.52,South,180,3.0,7.0,100,0.00,,,0.00,Rainwise IP-100,2013-05-23 14:59:00,
2013-05-23 11:04:00,54.0,54.0,29.52,South,180,7.0,7.0,100,0.00,,,0.00,Rainwise IP-100,2013-05-23 15:04:00,
2013-05-23 11:09:00,54.0,54.0,29.52,South,180,5.0,8.0,100,0.00,,,0.00,Rainwise IP-100,2013-05-23 15:09:00,
2013-05-23 11:14:00,54.0,54.0,29.52,South,180,2.0,7.0,100,0.00,,,0.00,Rainwise IP-100,2013-05-23 15:14:00,
2013-05-23 11:19:00,55.0,55.0,29.52,SSW,202,4.0,7.0,99,0.00,,,0.00,Rainwise IP-100,2013-05-23 15:19:00,
2013-05-23 11:24:00,55.0,55.0,29.52,SE,135,3.0,7.0,100,0.00,,,0.00,Rainwise IP-100,2013-05-23 15:24:00,
2013-05-23 11:29:00,56.0,56.0,29.52,SE,135,3.0,7.0,99,0.00,,,0.00,Rainwise IP-100,2013-05-23 15:29:00,
2013-05-23 11:34:00,56.0,54.5,29.52,SSE,157,3.0,8.0,95,0.00,,,0.00,Rainwise IP-100,2013-05-23 15:34:00,
2013-05-23 11:39:00,57.0,55.0,29.52,South,180,7.0,8.0,94,0.00,,,0.00,Rainwise IP-100,2013-05-23 15:39:00,
2013-05-23 11:44:00,56.0,54.0,29.51,South,180,6.0,8.0,94,0.00,,,0.00,Rainwise IP-100,2013-05-23 15:44:00,
2013-05-23 11:49:00,57.0,55.0,29.51,SSE,157,7.0,8.0,93,0.00,,,0.00,Rainwise IP-100,2013-05-23 15:49:00,
2013-05-23 11:54:00,57.0,55.0,29.52,SE,135,3.0,9.0,93,0.00,,,0.00,Rainwise IP-100,2013-05-23 15:54:00,
2013-05-23 11:59:00,57.0,55.0,29.52,SE,135,5.0,8.0,94,0.00,,,0.00,Rainwise IP-100,2013-05-23 15:59:00,
2013-05-23 12:04:00,57.0,55.0,29.52,ESE,112,4.0,8.0,93,0.00,,,0.00,Rainwise IP-100,2013-05-23 16:04:00,
2013-05-23 12:09:00,57.0,55.0,29.52,SSE,157,7.0,9.0,93,0.00,,,0.00,Rainwise IP-100,2013-05-23 16:09:00,
2013-05-23 12:14:00,57.0,55.0,29.51,SSE,157,4.0,7.0,94,0.00,,,0.00,Rainwise IP-100,2013-05-23 16:14:00,
2013-05-23 12:19:00,58.0,56.5,29.51,SSE,157,6.0,9.0,94,0.00,,,0.00,Rainwise IP-100,2013-05-23 16:19:00,
2013-05-23 12:24:00,58.0,56.5,29.51,SSW,202,5.0,10.0,94,0.00,,,0.00,Rainwise IP-100,2013-05-23 16:24:00,
2013-05-23 12:29:00,58.0,56.5,29.51,ESE,112,4.0,8.0,94,0.00,,,0.00,Rainwise IP-100,2013-05-23 16:29:00,
2013-05-23 12:34:00,59.0,57.0,29.51,South,180,6.0,9.0,94,0.00,,,0.00,Rainwise IP-100,2013-05-23 16:34:00,
2013-05-23 12:39:00,59.0,56.5,29.51,SE,135,6.0,9.0,92,0.00,,,0.00,Rainwise IP-100,2013-05-23 16:39:00,
2013-05-23 12:44:00,59.0,56.5,29.51,South,180,5.0,9.0,92,0.00,,,0.00,Rainwise IP-100,2013-05-23 16:44:00,
2013-05-23 12:49:00,58.0,55.0,29.51,SE,135,5.0,9.0,90,0.00,,,0.00,Rainwise IP-100,2013-05-23 16:49:00,
2013-05-23 12:54:00,57.0,54.5,29.51,SE,135,6.0,8.0,92,0.00,,,0.00,Rainwise IP-100,2013-05-23 16:54:00,
2013-05-23 12:59:00,57.0,55.0,29.51,SSE,157,5.0,6.0,94,0.00,,,0.00,Rainwise IP-100,2013-05-23 16:59:00,
2013-05-23 13:04:00,58.0,56.5,29.51,ENE,67,4.0,7.0,94,0.00,,,0.00,Rainwise IP-100,2013-05-23 17:04:00,
2013-05-23 13:09:00,58.0,56.5,29.51,ENE,67,1.0,5.0,94,0.00,,,0.00,Rainwise IP-100,2013-05-23 17:09:00,
2013-05-23 13:14:00,58.0,56.5,29.52,SSE,157,2.0,5.0,94,0.00,,,0.00,Rainwise IP-100,2013-05-23 17:14:00,
2013-05-23 13:19:00,58.0,56.5,29.52,South,180,5.0,8.0,94,0.00,,,0.00,Rainwise IP-100,2013-05-23 17:19:00,
2013-05-23 13:24:00,58.0,56.5,29.50,East,90,5.0,7.0,93,0.00,,,0.00,Rainwise IP-100,2013-05-23 17:24:00,
2013-05-23 13:29:00,59.0,57.5,29.50,SE,135,1.0,6.0,95,0.00,,,0.00,Rainwise IP-100,2013-05-23 17:29:00,
2013-05-23 13:34:00,59.0,57.5,29.51,South,180,5.0,7.0,95,0.00,,,0.00,Rainwise IP-100,2013-05-23 17:34:00,
2013-05-23 13:39:00,59.0,57.0,29.51,SW,225,5.0,7.0,94,0.00,,,0.00,Rainwise IP-100,2013-05-23 17:39:00,
2013-05-23 13:44:00,59.0,57.0,29.51,SE,135,1.0,6.0,94,0.00,,,0.00,Rainwise IP-100,2013-05-23 17:44:00,
2013-05-23 13:49:00,59.0,57.0,29.51,ESE,112,3.0,5.0,94,0.00,,,0.00,Rainwise IP-100,2013-05-23 17:49:00,
2013-05-23 13:54:00,59.0,57.5,29.51,ESE,112,5.0,7.0,95,0.00,,,0.00,Rainwise IP-100,2013-05-23 17:54:00,
2013-05-23 13:59:00,58.0,56.5,29.51,East,90,4.0,6.0,94,0.00,,,0.00,Rainwise IP-100,2013-05-23 17:59:00,
2013-05-23 14:04:00,59.0,57.5,29.50,South,180,4.0,5.0,96,0.00,,,0.00,Rainwise IP-100,2013-05-23 18:04:00,
2013-05-23 14:09:00,59.0,57.5,29.50,SE,135,4.0,5.0,95,0.00,,,0.00,Rainwise IP-100,2013-05-23 18:09:00,
2013-05-23 14:14:00,59.0,57.5,29.49,SW,225,4.0,6.0,95,0.00,,,0.00,Rainwise IP-100,2013-05-23 18:14:00,
2013-05-23 14:19:00,60.0,59.0,29.49,ESE,112,2.0,6.0,96,0.00,,,0.00,Rainwise IP-100,2013-05-23 18:19:00,
2013-05-23 14:24:00,60.0,59.0,29.49,South,180,3.0,5.0,97,0.00,,,0.00,Rainwise IP-100,2013-05-23 18:24:00,
2013-05-23 14:29:00,60.0,58.0,29.49,East,90,3.0,5.0,95,0.00,,,0.00,Rainwise IP-100,2013-05-23 18:29:00,
2013-05-23 14:34:00,60.0,59.0,29.50,SSW,202,2.0,5.0,96,0.00,,,0.00,Rainwise IP-100,2013-05-23 18:34:00,
2013-05-23 14:39:00,60.0,59.0,29.50,West,270,2.0,10.0,97,0.00,,,0.00,Rainwise IP-100,2013-05-23 18:39:00,
2013-05-23 14:44:00,61.0,60.5,29.49,WSW,247,0.0,4.0,98,0.00,,,0.00,Rainwise IP-100,2013-05-23 18:44:00,
2013-05-23 14:49:00,60.0,59.0,29.49,SE,135,6.0,6.0,97,0.00,,,0.00,Rainwise IP-100,2013-05-23 18:49:00,
2013-05-23 14:54:00,59.0,57.5,29.49,East,90,3.0,7.0,96,0.00,,,0.00,Rainwise IP-100,2013-05-23 18:54:00,
2013-05-23 14:59:00,59.0,58.0,29.49,East,90,4.0,6.0,97,0.00,,,0.00,Rainwise IP-100,2013-05-23 18:59:00,
2013-05-23 15:04:00,58.0,57.0,29.49,East,90,3.0,5.0,96,0.00,,,0.00,Rainwise IP-100,2013-05-23 19:04:00,
2013-05-23 15:09:00,58.0,57.0,29.49,East,90,1.0,4.0,96,0.00,,,0.00,Rainwise IP-100,2013-05-23 19:09:00,
2013-05-23 15:14:00,58.0,57.5,29.48,South,180,0.0,5.0,97,0.00,,,0.00,Rainwise IP-100,2013-05-23 19:14:00,
2013-05-23 15:19:00,59.0,59.0,29.48,West,270,11.0,13.0,100,0.00,,,0.00,Rainwise IP-100,2013-05-23 19:19:00,
2013-05-23 15:24:00,60.0,60.0,29.48,SSE,157,5.0,13.0,100,0.00,,,0.00,Rainwise IP-100,2013-05-23 19:24:00,
2013-05-23 15:29:00,60.0,60.0,29.48,SSW,202,6.0,10.0,100,0.00,,,0.00,Rainwise IP-100,2013-05-23 19:29:00,
2013-05-23 15:34:00,60.0,60.0,29.48,SW,225,10.0,10.0,100,0.00,,,0.00,Rainwise IP-100,2013-05-23 19:34:00,
2013-05-23 15:39:00,60.0,60.0,29.48,WSW,247,4.0,12.0,100,0.00,,,0.00,Rainwise IP-100,2013-05-23 19:39:00,
2013-05-23 15:44:00,59.0,59.0,29.48,SW,225,9.0,13.0,100,0.00,,,0.00,Rainwise IP-100,2013-05-23 19:44:00,
2013-05-23 15:49:00,60.0,60.0,29.48,SW,225,6.0,11.0,100,0.00,,,0.00,Rainwise IP-100,2013-05-23 19:49:00,
2013-05-23 15:54:00,60.0,60.0,29.48,West,270,10.0,10.0,100,0.00,,,0.00,Rainwise IP-100,2013-05-23 19:54:00,
2013-05-23 15:59:00,60.0,60.0,29.48,SW,225,4.0,15.0,100,0.00,,,0.00,Rainwise IP-100,2013-05-23 19:59:00,
2013-05-23 16:04:00,60.0,60.0,29.48,SE,135,2.0,7.0,100,0.00,,,0.00,Rainwise IP-100,2013-05-23 20:04:00,
2013-05-23 16:09:00,60.0,60.0,29.48,SSW,202,6.0,7.0,100,0.00,,,0.00,Rainwise IP-100,2013-05-23 20:09:00,
2013-05-23 16:14:00,60.0,60.0,29.48,SW,225,7.0,10.0,100,0.00,,,0.00,Rainwise IP-100,2013-05-23 20:14:00,
2013-05-23 16:19:00,60.0,60.0,29.48,WSW,247,4.0,11.0,100,0.00,,,0.00,Rainwise IP-100,2013-05-23 20:19:00,
2013-05-23 16:24:00,60.0,60.0,29.49,WSW,247,6.0,9.0,100,0.00,,,0.00,Rainwise IP-100,2013-05-23 20:24:00,
2013-05-23 16:29:00,60.0,60.0,29.49,WSW,247,1.0,6.0,100,0.00,,,0.00,Rainwise IP-100,2013-05-23 20:29:00,
2013-05-23 16:34:00,60.0,60.0,29.49,SW,225,3.0,9.0,100,0.00,,,0.00,Rainwise IP-100,2013-05-23 20:34:00,
2013-05-23 16:39:00,60.0,60.0,29.49,SSW,202,4.0,6.0,100,0.00,,,0.00,Rainwise IP-100,2013-05-23 20:39:00,
2013-05-23 16:44:00,60.0,60.0,29.49,SW,225,4.0,11.0,100,0.00,,,0.00,Rainwise IP-100,2013-05-23 20:44:00,
2013-05-23 16:49:00,59.0,59.0,29.49,SW,225,3.0,10.0,100,0.00,,,0.00,Rainwise IP-100,2013-05-23 20:49:00,
2013-05-23 16:54:00,59.0,59.0,29.49,SW,225,4.0,7.0,100,0.00,,,0.00,Rainwise IP-100,2013-05-23 20:54:00,
2013-05-23 16:59:00,59.0,59.0,29.49,West,270,7.0,12.0,100,0.00,,,0.00,Rainwise IP-100,2013-05-23 20:59:00,
2013-05-23 17:04:00,60.0,60.0,29.49,SW,225,9.0,13.0,100,0.00,,,0.00,Rainwise IP-100,2013-05-23 21:04:00,
2013-05-23 17:09:00,60.0,60.0,29.49,SSW,202,4.0,11.0,100,0.00,,,0.00,Rainwise IP-100,2013-05-23 21:09:00,
2013-05-23 17:14:00,60.0,60.0,29.49,WSW,247,7.0,10.0,100,0.00,,,0.00,Rainwise IP-100,2013-05-23 21:14:00,
2013-05-23 17:19:00,60.0,60.0,29.49,SW,225,5.0,10.0,100,0.00,,,0.00,Rainwise IP-100,2013-05-23 21:19:00,
2013-05-23 17:24:00,60.0,60.0,29.48,SW,225,8.0,15.0,100,0.00,,,0.00,Rainwise IP-100,2013-05-23 21:24:00,
2013-05-23 17:29:00,60.0,60.0,29.48,WSW,247,6.0,11.0,100,0.00,,,0.00,Rainwise IP-100,2013-05-23 21:29:00,
2013-05-23 17:34:00,60.0,60.0,29.48,West,270,6.0,10.0,100,0.00,,,0.00,Rainwise IP-100,2013-05-23 21:34:00,
2013-05-23 17:39:00,60.0,60.0,29.48,WSW,247,14.0,14.0,100,0.00,,,0.00,Rainwise IP-100,2013-05-23 21:39:00,
2013-05-23 17:44:00,60.0,60.0,29.48,WSW,247,3.0,14.0,100,0.00,,,0.00,Rainwise IP-100,2013-05-23 21:44:00,
2013-05-23 17:49:00,60.0,60.0,29.48,WSW,247,6.0,11.0,100,0.00,,,0.00,Rainwise IP-100,2013-05-23 21:49:00,
2013-05-23 17:54:00,60.0,60.0,29.49,West,270,3.0,8.0,100,0.00,,,0.00,Rainwise IP-100,2013-05-23 21:54:00,
2013-05-23 17:59:00,60.0,60.0,29.49,West,270,5.0,10.0,100,0.00,,,0.00,Rainwise IP-100,2013-05-23 21:59:00,
2013-05-23 18:04:00,60.0,60.0,29.48,WSW,247,2.0,8.0,100,0.00,,,0.00,Rainwise IP-100,2013-05-23 22:04:00,
2013-05-23 18:09:00,60.0,60.0,29.48,West,270,1.0,12.0,100,0.00,,,0.00,Rainwise IP-100,2013-05-23 22:09:00,
2013-05-23 18:14:00,60.0,60.0,29.48,North,360,5.0,10.0,100,0.00,,,0.00,Rainwise IP-100,2013-05-23 22:14:00,
2013-05-23 18:19:00,60.0,60.0,29.48,SW,225,5.0,9.0,100,0.00,,,0.00,Rainwise IP-100,2013-05-23 22:19:00,
2013-05-23 18:24:00,60.0,60.0,29.48,SW,225,6.0,12.0,100,0.00,,,0.00,Rainwise IP-100,2013-05-23 22:24:00,
2013-05-23 18:29:00,60.0,60.0,29.48,SW,225,6.0,12.0,100,0.00,,,0.00,Rainwise IP-100,2013-05-23 22:29:00,
2013-05-23 18:34:00,60.0,60.0,29.48,West,270,3.0,10.0,100,0.00,,,0.00,Rainwise IP-100,2013-05-23 22:34:00,
2013-05-23 18:39:00,60.0,60.0,29.48,West,270,3.0,10.0,100,0.00,,,0.00,Rainwise IP-100,2013-05-23 22:39:00,
2013-05-23 18:44:00,59.0,59.0,29.48,West,270,7.0,11.0,100,0.00,,,0.00,Rainwise IP-100,2013-05-23 22:44:00,
2013-05-23 18:49:00,59.0,59.0,29.48,SW,225,4.0,9.0,100,0.00,,,0.00,Rainwise IP-100,2013-05-23 22:49:00,
2013-05-23 18:54:00,59.0,59.0,29.48,WSW,247,3.0,8.0,100,0.00,,,0.00,Rainwise IP-100,2013-05-23 22:54:00,
2013-05-23 18:59:00,59.0,59.0,29.48,SSE,157,4.0,10.0,100,0.00,,,0.00,Rainwise IP-100,2013-05-23 22:59:00,
2013-05-23 19:04:00,59.0,59.0,29.48,SW,225,3.0,8.0,100,0.00,,,0.00,Rainwise IP-100,2013-05-23 23:04:00,
2013-05-23 19:09:00,59.0,59.0,29.48,West,270,4.0,9.0,100,0.00,,,0.00,Rainwise IP-100,2013-05-23 23:09:00,
2013-05-23 19:14:00,59.0,59.0,29.48,SSE,157,1.0,7.0,100,0.00,,,0.00,Rainwise IP-100,2013-05-23 23:14:00,
2013-05-23 19:19:00,59.0,59.0,29.48,SSW,202,4.0,10.0,100,0.00,,,0.00,Rainwise IP-100,2013-05-23 23:19:00,
2013-05-23 19:24:00,59.0,59.0,29.48,SW,225,5.0,10.0,100,0.00,,,0.00,Rainwise IP-100,2013-05-23 23:24:00,
2013-05-23 19:29:00,58.0,58.0,29.48,SSW,202,7.0,10.0,100,0.00,,,0.00,Rainwise IP-100,2013-05-23 23:29:00,
2013-05-23 19:34:00,59.0,59.0,29.48,SW,225,8.0,11.0,100,0.00,,,0.00,Rainwise IP-100,2013-05-23 23:34:00,
2013-05-23 19:39:00,58.0,58.0,29.48,SW,225,3.0,9.0,100,0.00,,,0.00,Rainwise IP-100,2013-05-23 23:39:00,
2013-05-23 19:44:00,58.0,58.0,29.48,SW,225,6.0,9.0,100,0.00,,,0.00,Rainwise IP-100,2013-05-23 23:44:00,
2013-05-23 19:49:00,59.0,59.0,29.48,SW,225,4.0,11.0,100,0.00,,,0.00,Rainwise IP-100,2013-05-23 23:49:00,
2013-05-23 19:54:00,59.0,59.0,29.48,SW,225,7.0,11.0,100,0.00,,,0.00,Rainwise IP-100,2013-05-23 23:54:00,
2013-05-23 19:59:00,59.0,59.0,29.48,SW,225,2.0,10.0,100,0.00,,,0.00,Rainwise IP-100,2013-05-23 23:59:00,
2013-05-23 20:04:00,59.0,59.0,29.48,SSW,202,8.0,8.0,100,0.00,,,0.00,Rainwise IP-100,2013-05-24 00:04:00,
2013-05-23 20:09:00,59.0,59.0,29.48,SW,225,6.0,10.0,100,0.00,,,0.00,Rainwise IP-100,2013-05-24 00:09:00,
2013-05-23 20:14:00,59.0,59.0,29.49,West,270,6.0,13.0,100,0.00,,,0.00,Rainwise IP-100,2013-05-24 00:14:00,
2013-05-23 20:19:00,59.0,59.0,29.49,SW,225,10.0,13.0,100,0.00,,,0.00,Rainwise IP-100,2013-05-24 00:19:00,
2013-05-23 20:24:00,59.0,59.0,29.48,South,180,3.0,13.0,100,0.00,,,0.00,Rainwise IP-100,2013-05-24 00:24:00,
2013-05-23 20:29:00,59.0,59.0,29.48,West,270,4.0,7.0,100,0.00,,,0.00,Rainwise IP-100,2013-05-24 00:29:00,
2013-05-23 20:34:00,59.0,59.0,29.48,WSW,247,9.0,10.0,100,0.00,,,0.00,Rainwise IP-100,2013-05-24 00:34:00,
2013-05-23 20:39:00,59.0,59.0,29.48,West,270,4.0,12.0,100,0.00,,,0.00,Rainwise IP-100,2013-05-24 00:39:00,
2013-05-23 20:44:00,59.0,59.0,29.48,West,270,8.0,11.0,100,0.00,,,0.00,Rainwise IP-100,2013-05-24 00:44:00,
2013-05-23 20:49:00,59.0,59.0,29.48,West,270,7.0,13.0,100,0.00,,,0.00,Rainwise IP-100,2013-05-24 00:49:00,
2013-05-23 20:54:00,59.0,59.0,29.48,West,270,8.0,13.0,100,0.00,,,0.00,Rainwise IP-100,2013-05-24 00:54:00,
2013-05-23 20:59:00,59.0,59.0,29.48,West,270,4.0,11.0,100,0.00,,,0.00,Rainwise IP-100,2013-05-24 00:59:00,
2013-05-23 21:04:00,60.0,60.0,29.48,SW,225,11.0,14.0,100,0.00,,,0.00,Rainwise IP-100,2013-05-24 01:04:00,
2013-05-23 21:09:00,60.0,60.0,29.48,WSW,247,3.0,13.0,100,0.00,,,0.00,Rainwise IP-100,2013-05-24 01:09:00,
2013-05-23 21:14:00,60.0,60.0,29.48,WSW,247,6.0,10.0,100,0.00,,,0.00,Rainwise IP-100,2013-05-24 01:14:00,
2013-05-23 21:19:00,60.0,60.0,29.48,West,270,6.0,19.0,100,0.00,,,0.00,Rainwise IP-100,2013-05-24 01:19:00,
2013-05-23 21:24:00,60.0,60.0,29.49,WSW,247,9.0,14.0,100,0.00,,,0.00,Rainwise IP-100,2013-05-24 01:24:00,
2013-05-23 21:29:00,60.0,60.0,29.49,SW,225,8.0,13.0,100,0.00,,,0.00,Rainwise IP-100,2013-05-24 01:29:00,
2013-05-23 21:34:00,60.0,60.0,29.49,West,270,9.0,9.0,100,0.00,,,0.00,Rainwise IP-100,2013-05-24 01:34:00,
2013-05-23 21:39:00,60.0,60.0,29.49,SSW,202,4.0,10.0,100,0.00,,,0.00,Rainwise IP-100,2013-05-24 01:39:00,
2013-05-23 21:44:00,60.0,60.0,29.48,West,270,4.0,16.0,100,0.00,,,0.00,Rainwise IP-100,2013-05-24 01:44:00,
2013-05-23 21:49:00,60.0,60.0,29.48,WSW,247,3.0,12.0,100,0.00,,,0.00,Rainwise IP-100,2013-05-24 01:49:00,
2013-05-23 21:54:00,60.0,60.0,29.48,West,270,5.0,11.0,100,0.00,,,0.00,Rainwise IP-100,2013-05-24 01:54:00,
2013-05-23 21:59:00,60.0,60.0,29.48,West,270,7.0,9.0,100,0.00,,,0.00,Rainwise IP-100,2013-05-24 01:59:00,
2013-05-23 22:04:00,60.0,60.0,29.48,SSW,202,4.0,15.0,100,0.00,,,0.00,Rainwise IP-100,2013-05-24 02:04:00,
2013-05-23 22:09:00,60.0,60.0,29.48,WSW,247,6.0,11.0,100,0.00,,,0.00,Rainwise IP-100,2013-05-24 02:09:00,
2013-05-23 22:10:00,60.0,60.0,29.48,SW,225,8.0,11.0,100,0.00,,,0.00,Rainwise IP-100,2013-05-24 02:10:00,
2013-05-23 22:15:00,60.0,60.0,29.48,SW,225,6.0,12.0,100,0.00,,,0.00,Rainwise IP-100,2013-05-24 02:15:00,
2013-05-23 22:20:00,60.0,60.0,29.48,SSW,202,5.0,10.0,100,0.00,,,0.00,Rainwise IP-100,2013-05-24 02:20:00,
2013-05-23 22:25:00,60.0,60.0,29.48,West,270,8.0,13.0,100,0.00,,,0.00,Rainwise IP-100,2013-05-24 02:25:00,
2013-05-23 22:30:00,59.0,59.0,29.48,West,270,7.0,13.0,100,0.00,,,0.00,Rainwise IP-100,2013-05-24 02:30:00,
2013-05-23 22:35:00,59.0,59.0,29.47,WSW,247,3.0,10.0,100,0.00,,,0.00,Rainwise IP-100,2013-05-24 02:35:00,
2013-05-23 22:40:00,59.0,59.0,29.47,SW,225,8.0,11.0,100,0.00,,,0.00,Rainwise IP-100,2013-05-24 02:40:00,
2013-05-23 22:45:00,59.0,59.0,29.47,SW,225,3.0,13.0,100,0.00,,,0.00,Rainwise IP-100,2013-05-24 02:45:00,
2013-05-23 22:50:00,59.0,59.0,29.47,SW,225,4.0,11.0,100,0.00,,,0.00,Rainwise IP-100,2013-05-24 02:50:00,
2013-05-23 22:53:00,59.0,59.0,29.47,SW,225,5.0,11.0,100,0.00,,,0.00,Rainwise IP-100,2013-05-24 02:53:00,
2013-05-23 22:58:00,59.0,59.0,29.47,SW,225,7.0,10.0,100,0.00,,,0.00,Rainwise IP-100,2013-05-24 02:58:00,
2013-05-23 23:03:00,59.0,59.0,29.47,West,270,8.0,9.0,100,0.00,,,0.00,Rainwise IP-100,2013-05-24 03:03:00,
2013-05-23 23:08:00,59.0,59.0,29.47,WSW,247,8.0,14.0,100,0.00,,,0.00,Rainwise IP-100,2013-05-24 03:08:00,
2013-05-23 23:13:00,59.0,59.0,29.47,SW,225,7.0,11.0,100,0.00,,,0.00,Rainwise IP-100,2013-05-24 03:13:00,
2013-05-23 23:18:00,59.0,59.0,29.47,WSW,247,5.0,11.0,100,0.00,,,0.00,Rainwise IP-100,2013-05-24 03:18:00,
2013-05-23 23:23:00,59.0,59.0,29.47,SSW,202,5.0,12.0,100,0.00,,,0.00,Rainwise IP-100,2013-05-24 03:23:00,
2013-05-23 23:28:00,59.0,59.0,29.47,West,270,9.0,14.0,100,0.00,,,0.00,Rainwise IP-100,2013-05-24 03:28:00,
2013-05-23 23:33:00,59.0,59.0,29.47,West,270,5.0,11.0,100,0.00,,,0.00,Rainwise IP-100,2013-05-24 03:33:00,
2013-05-23 23:38:00,59.0,59.0,29.47,West,270,11.0,14.0,100,0.00,,,0.00,Rainwise IP-100,2013-05-24 03:38:00,
2013-05-23 23:43:00,59.0,59.0,29.47,SW,225,9.0,14.0,100,0.00,,,0.00,Rainwise IP-100,2013-05-24 03:43:00,
2013-05-23 23:48:00,59.0,59.0,29.47,WSW,247,8.0,12.0,100,0.00,,,0.00,Rainwise IP-100,2013-05-24 03:48:00,
2013-05-23 23:53:00,59.0,59.0,29.47,SW,225,5.0,14.0,100,0.00,,,0.00,Rainwise IP-100,2013-05-24 03:53:00,
2013-05-23 23:58:00,59.0,59.0,29.47,West,270,7.0,17.0,100,0.00,,,0.00,Rainwise IP-100,2013-05-24 03:58:00,